Location: ?
(35.4554°N, 139.3092°E)
Time: 22:29:37
(UTC+00:00)

GPS 2-04 Rocket1 - Pass Details

Date: 21 April 2021
Orbit: 416 x 541 km, 35.6° (Epoch: 10 May)

Event Time Altitude Azimuth Distance (km) Brightness Sun altitude
Exits shadow 19:12:26 10° 210° (SSW) 1,464 4.5 -10.3°
Maximum altitude 19:15:08 24° 155° (SSE) 914 4.0 -9.8°
Drops below altitude 10° 19:17:55 10° 99° (E) 1,496 6.0 -9.3°
Sets 19:20:19 0° 85° (E) 2,376 7.8 -8.9°
